Wind_Speed
29 30 30 30 31 32 32 33 33 34 35 36 36 37 37 38 39 40 41 42 42 43 44 44 45 45 45 45 45 45 45 45 44 44 45 46 47 47 48 48 48 50 51
29 30 30 31 31 32 33 33 34 35 36 36 37 39 39 39 40 41 41 41 42 43 43 43 44 44 44 45 45 45 45 45 45 45 46 47 47 47 47 48 49 49 50
30 30 31 31 31 32 32 33 34 35 36 37 38 39 39 39 40 41 42 42 42 42 42 42 43 43 44 44 44 44 44 45 45 46 47 47 47 47 47 48 49 49 49
30 30 31 31 32 32 33 34 35 36 36 37 38 39 39 39 40 41 42 42 42 42 43 43 43 43 44 44 45 46 45 45 45 46 47 47 48 48 49 49 50 50 50
31 31 32 32 33 34 34 34 35 35 36 36 37 37 38 38 39 40 41 41 42 42 43 43 44 44 44 45 45 46 47 47 47 47 47 48 49 49 49 50 50 51 52
32 32 33 33 33 34 34 34 35 35 35 36 37 37 37 37 38 40 40 40 41 41 41 42 43 43 44 45 46 46 47 48 49 49 48 48 49 49 50 51 52 53 52
34 34 35 35 34 34 34 35 35 36 36 36 37 38 38 38 39 39 40 41 41 41 41 41 43 44 45 46 46 46 47 48 49 49 49 49 49 50 51 51 52 53 53
34 35 35 36 36 35 35 36 36 36 36 36 37 37 38 39 39 39 40 41 42 42 42 42 43 44 45 46 46 46 46 47 47 48 49 49 50 51 52 52 52 54 55
36 36 36 36 36 36 36 36 37 37 38 38 38 38 39 39 40 40 40 40 41 42 42 43 43 44 45 46 46 47 47 47 47 48 49 49 50 52 52 52 52 53 54
37 37 38 37 37 37 38 38 38 39 39 39 39 39 40 40 41 41 41 41 41 42 43 43 44 44 45 46 47 48 48 48 49 49 50 51 52 52 52 51 51 51 51
37 37 37 37 37 38 38 38 38 39 39 39 39 39 40 41 41 41 41 42 42 43 43 44 44 45 45 46 47 48 49 50 51 51 51 51 51 51 50 49 48 49 49
37 37 36 37 37 37 37 37 37 37 38 37 37 38 39 39 40 41 42 42 42 43 43 43 43 44 45 47 48 48 49 50 50 50 50 49 49 49 48 48 48 49 49
36 36 36 37 37 37 37 37 37 37 37 37 37 37 38 39 39 39 39 39 40 40 41 42 42 43 44 45 46 47 47 48 48 48 48 48 48 48 48 48 49 49 49
37 37 37 36 36 37 37 38 38 38 38 38 37 37 37 38 38 38 38 39 39 40 40 41 42 42 43 43 43 44 45 46 47 48 48 47 47 47 47 47 47 47 48
36 37 37 37 36 36 36 36 36 36 37 37 36 37 37 37 37 38 38 38 39 39 40 40 41 41 41 41 42 43 44 45 45 46 46 45 45 46 45 46 46 47 48
35 35 36 35 35 35 35 35 35 36 35 36 36 37 37 37 37 37 37 37 38 38 38 38 39 39 40 40 41 41 42 42 42 43 42 42 42 42 43 44 45 46 46
32 33 33 33 34 34 34 34 34 34 34 34 35 36 36 36 36 36 36 36 36 36 37 37 37 38 38 39 40 40 40 40 40 40 39 39 40 40 41 42 42 43 43
31 31 31 31 32 32 33 33 33 33 34 34 34 35 35 35 35 35 35 35 35 35 36 36 36 37 37 38 38 38 39 39 38 39 39 39 39 40 40 41 41 41 41
30 30 30 30 31 31 32 32 32 32 33 33 33 34 34 33 33 33 33 34 34 35 35 35 36 36 36 36 36 36 37 37 38 38 38 38 38 37 38 38 39 39 39
30 30 30 31 31 31 31 31 31 31 31 32 32 32 32 32 32 32 33 33 34 34 35 35 36 36 36 35 35 35 35 36 36 37 37 37 36 36 37 37 37 37 37
29 29 30 30 30 30 30 30 30 30 30 30 30 31 31 31 31 31 32 33 34 35 35 35 36 36 36 35 35 36 36 35 35 35 35 34 34 34 35 35 35 35 35
28 28 28 29 29 29 29 29 29 29 29 29 29 29 30 30 30 31 32 33 33 33 34 35 35 35 35 35 35 35 35 35 34 34 33 33 33 33 33 33 33 33 33
27 27 28 28 28 29 29 30 30 29 29 29 29 29 29 29 30 31 32 33 33 33 34 34 34 34 34 33 33 33 33 33 33 32 32 32 32 32 31 31 32 32 32
25 26 27 28 28 29 29 29 30 30 29 29 29 29 29 30 30 31 32 32 32 32 32 32 32 32 31 31 31 31 31 31 31 32 31 31 31 31 31 31 31 32 32
26 26 27 28 28 29 29 29 29 29 29 29 29 29 29 30 30 30 30 31 31 30 30 29 29 29 29 29 29 29 29 30 30 30 31 31 30 30 30 30 30 30 30
27 27 27 27 27 28 28 28 28 29 29 29 29 29 29 29 29 29 29 29 29 28 28 28 28 28 28 28 27 28 28 29 30 30 31 31 30 30 29 29 29 29 28
Wind_Direction
265 264 261 261 261 260 259 259 259 259 260 259 259 260 260 261 261 261 260 261 262 263 262 261 261 260 259 261 261 261 262 261 261 261 261 260 260 260 261 262 262 263 264
265 263 261 261 261 260 260 259 260 260 260 260 259 260 260 261 262 261 261 262 263 264 263 262 262 261 261 263 262 262 262 261 262 262 262 262 262 262 263 263 263 264 265
266 263 262 262 261 261 261 261 261 261 262 261 262 261 261 262 261 261 261 262 263 262 262 263 262 261 262 263 263 263 263 263 263 263 263 263 263 262 263 263 263 264 265
265 264 263 263 264 264 264 264 263 263 263 263 263 263 262 262 263 262 262 262 261 262 262 263 262 263 263 263 263 263 263 264 265 265 264 264 264 265 264 264 264 265 266
265 265 263 264 265 265 266 266 265 264 265 265 265 264 263 263 263 263 262 261 262 263 264 264 264 264 264 264 263 263 264 265 266 266 265 265 265 265 265 265 265 265 266
266 266 265 265 266 266 267 268 267 266 266 267 266 265 265 264 265 265 264 263 264 265 265 265 265 265 266 265 265 265 266 266 267 268 267 266 265 265 265 266 266 267 268
266 267 267 266 266 266 267 267 268 267 268 268 267 265 266 266 268 268 267 265 265 266 266 266 267 267 267 266 266 267 267 267 268 268 269 269 268 267 267 267 268 268 269
267 268 269 269 268 268 267 266 267 268 269 269 269 266 266 267 268 268 266 266 265 266 266 267 267 267 266 266 267 267 268 268 268 268 269 269 269 269 270 269 270 270 271
268 270 270 270 269 268 268 267 267 268 269 270 270 269 268 268 268 268 268 268 267 267 267 267 268 267 266 266 266 266 267 267 268 268 269 269 269 270 271 271 271 272 272
270 270 270 270 268 268 268 269 269 269 269 269 270 271 270 269 268 269 270 270 269 268 268 268 268 269 267 266 266 267 268 268 268 268 269 270 271 271 271 271 272 272 273
270 271 271 271 270 269 269 270 272 271 271 270 271 270 270 270 270 270 271 270 270 270 270 270 270 270 269 268 268 268 268 268 269 269 269 269 270 270 270 270 271 273 274
271 271 271 271 271 270 270 270 271 272 272 273 273 272 271 270 270 271 271 271 271 271 272 271 270 269 269 270 270 270 270 270 270 270 269 270 270 270 269 269 271 273 274
271 271 271 270 270 271 271 271 271 271 272 273 274 274 273 272 271 272 271 271 271 272 272 271 270 270 271 270 270 270 270 270 270 270 270 270 270 269 268 269 271 272 274
270 270 270 270 271 271 272 273 273 272 273 273 275 275 275 274 273 272 273 273 273 273 273 272 271 271 271 271 270 270 270 271 270 271 270 270 269 268 268 270 271 272 274
270 270 270 270 271 272 273 274 274 273 273 274 275 275 275 275 274 274 274 273 273 273 274 273 273 272 272 271 271 272 272 273 272 272 272 271 269 269 270 271 272 274 275
270 270 270 270 271 272 274 275 275 274 273 275 276 276 276 275 275 275 273 273 273 273 274 273 273 273 273 272 272 272 274 274 274 273 273 271 270 270 272 274 275 276 277
270 270 271 272 272 273 274 275 275 274 275 276 276 276 275 275 276 275 273 272 273 273 273 274 274 274 274 273 273 273 274 274 274 274 272 272 271 272 274 276 277 278 278
270 270 271 272 273 275 276 276 275 274 275 276 277 277 277 276 276 275 274 273 274 274 275 275 275 276 276 276 276 275 275 274 274 274 272 272 272 274 275 276 277 278 279
269 270 271 272 273 276 277 277 276 276 277 277 278 277 277 276 276 276 275 275 275 276 277 277 277 277 277 277 276 276 275 275 274 274 274 273 274 275 276 276 277 278 278
270 270 271 272 274 276 277 277 277 277 278 279 279 278 276 275 275 275 276 276 277 277 276 277 277 276 276 276 276 275 275 276 276 275 274 274 275 277 277 278 278 278 279
271 272 273 273 274 275 275 275 275 277 278 280 280 278 277 276 275 276 276 278 279 278 277 277 277 277 276 275 275 275 275 275 276 276 275 275 276 278 279 279 278 279 280
273 274 274 275 275 275 274 273 275 277 278 279 279 278 277 276 276 276 277 279 279 279 278 278 278 277 276 275 274 274 275 275 275 275 274 275 277 278 280 279 279 279 280
274 274 275 276 276 276 275 275 275 276 277 278 278 277 276 276 276 277 278 279 279 279 279 278 277 276 275 274 273 273 273 273 273 273 273 274 276 278 279 279 279 280 281
276 277 276 276 276 275 275 276 276 276 276 277 277 276 277 278 279 279 279 279 280 280 279 279 278 276 275 274 273 273 273 273 273 273 272 274 276 277 278 279 280 281 282
278 278 279 278 278 277 277 277 277 277 277 277 277 278 278 279 280 281 281 281 281 280 280 280 279 277 276 275 274 273 273 274 274 274 274 275 276 278 278 279 281 282 283
279 280 280 280 280 279 278 278 278 279 278 278 278 278 279 280 281 281 281 281 280 279 279 279 279 278 276 276 276 275 275 276 276 276 277 276 276 278 278 279 280 281 282
Height
5641 5642 5642 5643 5644 5645 5646 5647 5648 5649 5650 5651 5652 5653 5654 5655 5656 5657 5658 5660 5661 5662 5663 5664 5665 5665 5667 5668 5669 5671 5673 5675 5677 5679 5680 5682 5683 5684 5685 5686 5688 5689 5690
5633 5634 5634 5635 5635 5636 5637 5638 5639 5640 5640 5641 5642 5643 5644 5644 5645 5646 5647 5648 5649 5650 5651 5652 5653 5654 5655 5656 5658 5659 5660 5662 5664 5666 5667 5668 5670 5671 5672 5673 5675 5676 5677
5625 5625 5626 5626 5627 5627 5628 5629 5629 5630 5631 5631 5632 5632 5633 5633 5634 5635 5636 5637 5638 5639 5640 5641 5642 5643 5644 5645 5645 5647 5648 5649 5650 5652 5654 5655 5657 5658 5659 5660 5661 5662 5663
5616 5616 5617 5617 5618 5618 5619 5619 5620 5620 5621 5621 5621 5622 5622 5623 5623 5624 5624 5626 5626 5628 5629 5629 5630 5631 5632 5633 5634 5635 5636 5637 5637 5638 5640 5641 5643 5644 5645 5646 5648 5649 5649
5607 5607 5608 5608 5608 5609 5609 5610 5610 5610 5610 5611 5611 5611 5611 5612 5612 5613 5613 5614 5615 5616 5617 5618 5619 5619 5620 5620 5621 5622 5623 5624 5625 5625 5627 5628 5629 5630 5631 5632 5633 5634 5635
5598 5598 5598 5599 5599 5599 5599 5599 5600 5600 5600 5600 5600 5600 5600 5601 5601 5601 5601 5602 5603 5604 5605 5606 5607 5608 5608 5608 5609 5610 5610 5611 5612 5613 5614 5614 5615 5616 5616 5617 5618 5619 5621
5588 5588 5588 5589 5589 5589 5589 5589 5589 5589 5589 5589 5589 5589 5590 5590 5590 5589 5590 5590 5592 5593 5594 5594 5595 5596 5596 5597 5597 5597 5597 5598 5599 5599 5600 5601 5601 5601 5602 5602 5603 5604 5605
5578 5578 5578 5578 5578 5579 5579 5579 5579 5579 5579 5579 5579 5579 5579 5579 5579 5578 5579 5579 5580 5581 5582 5582 5583 5583 5584 5584 5584 5584 5585 5585 5585 5586 5587 5587 5587 5586 5587 5587 5587 5588 5589
5568 5568 5568 5568 5568 5568 5568 5568 5568 5568 5568 5568 5568 5568 5568 5568 5568 5568 5568 5568 5569 5569 5570 5570 5570 5570 5570 5571 5571 5571 5572 5572 5571 5572 5572 5573 5572 5572 5572 5572 5572 5572 5573
5557 5557 5557 5557 5557 5557 5557 5557 5557 5557 5557 5557 5557 5557 5557 5557 5556 5556 5556 5557 5557 5558 5558 5557 5557 5557 5557 5557 5557 5558 5558 5559 5558 5558 5559 5559 5558 5558 5557 5557 5557 5557 5557
5545 5545 5545 5545 5546 5546 5546 5546 5546 5546 5546 5546 5546 5545 5545 5545 5545 5545 5544 5544 5545 5545 5545 5545 5544 5544 5543 5543 5543 5544 5544 5544 5544 5544 5544 5544 5544 5543 5543 5543 5543 5543 5543
5534 5534 5534 5534 5534 5535 5535 5535 5534 5534 5534 5534 5534 5534 5533 5533 5533 5532 5532 5532 5532 5532 5532 5531 5531 5531 5530 5530 5530 5529 5529 5529 5529 5529 5529 5529 5529 5529 5529 5529 5529 5529 5528
5522 5523 5523 5523 5523 5523 5523 5523 5523 5523 5523 5523 5522 5522 5522 5522 5521 5521 5520 5520 5519 5519 5519 5518 5518 5517 5517 5516 5516 5516 5515 5515 5515 5515 5515 5515 5515 5514 5515 5515 5515 5514 5514
5511 5511 5511 5512 5512 5512 5512 5512 5512 5511 5511 5511 5511 5511 5510 5510 5509 5509 5508 5508 5507 5507 5506 5506 5505 5504 5504 5504 5503 5502 5502 5502 5501 5501 5500 5500 5500 5500 5500 5500 5500 5500 5500
5499 5499 5499 5500 5500 5500 5500 5500 5500 5500 5499 5499 5499 5499 5499 5499 5498 5497 5496 5496 5496 5495 5494 5494 5493 5492 5492 5491 5490 5490 5489 5488 5487 5486 5486 5486 5486 5486 5486 5486 5486 5485 5485
5488 5488 5488 5488 5488 5489 5489 5489 5488 5488 5488 5488 5487 5487 5487 5487 5486 5485 5485 5484 5484 5483 5482 5482 5481 5480 5480 5479 5478 5478 5477 5476 5474 5473 5473 5473 5473 5473 5473 5472 5472 5471 5470
5478 5478 5477 5478 5478 5478 5478 5478 5478 5478 5477 5477 5476 5476 5476 5475 5474 5474 5473 5473 5472 5471 5471 5470 5470 5469 5468 5467 5466 5465 5465 5463 5462 5462 5461 5461 5461 5460 5460 5460 5459 5458 5457
5468 5467 5467 5467 5467 5467 5467 5467 5467 5467 5467 5466 5466 5465 5464 5464 5463 5463 5462 5462 5461 5461 5460 5459 5458 5457 5457 5455 5454 5453 5453 5452 5451 5450 5450 5449 5449 5448 5448 5447 5446 5445 5444
5458 5458 5458 5458 5458 5458 5457 5457 5457 5457 5456 5456 5455 5454 5454 5453 5453 5452 5452 5451 5451 5450 5449 5448 5447 5446 5445 5444 5443 5442 5441 5440 5439 5439 5438 5437 5437 5436 5436 5435 5434 5433 5432
5448 5448 5448 5448 5448 5448 5447 5447 5447 5446 5446 5445 5445 5444 5443 5443 5443 5442 5441 5441 5440 5439 5438 5437 5436 5435 5434 5433 5432 5431 5430 5429 5428 5427 5427 5426 5426 5425 5425 5424 5423 5422 5421
5439 5439 5439 5439 5438 5438 5438 5437 5437 5437 5436 5435 5435 5434 5433 5433 5432 5432 5431 5430 5429 5428 5427 5426 5425 5423 5422 5421 5420 5420 5419 5418 5417 5417 5416 5416 5415 5414 5413 5412 5411 5411 5410
5430 5430 5430 5429 5429 5428 5428 5428 5428 5427 5427 5426 5425 5424 5423 5423 5422 5422 5421 5420 5418 5417 5416 5414 5413 5412 5411 5410 5409 5409 5408 5407 5407 5406 5406 5405 5405 5404 5403 5402 5401 5400 5399
5421 5421 5420 5420 5419 5419 5419 5419 5418 5418 5417 5416 5416 5415 5414 5413 5412 5411 5410 5409 5407 5406 5404 5403 5402 5401 5400 5399 5398 5398 5397 5397 5396 5396 5396 5395 5394 5394 5393 5392 5391 5390 5389
5413 5412 5412 5411 5410 5410 5409 5409 5408 5408 5407 5407 5406 5405 5404 5403 5402 5401 5400 5398 5397 5395 5394 5393 5391 5390 5389 5388 5388 5387 5387 5387 5386 5386 5386 5385 5385 5384 5383 5382 5381 5380 5379
5404 5403 5403 5402 5401 5401 5400 5399 5399 5398 5397 5397 5396 5395 5394 5393 5392 5391 5389 5388 5387 5385 5384 5383 5382 5381 5380 5379 5378 5378 5377 5377 5376 5376 5376 5375 5375 5374 5373 5373 5372 5371 5370
5396 5395 5394 5393 5392 5391 5391 5390 5390 5389 5388 5387 5386 5385 5385 5384 5382 5381 5380 5378 5377 5376 5375 5374 5373 5372 5371 5370 5369 5368 5368 5367 5367 5366 5366 5365 5365 5364 5364 5363 5362 5362 5361